Estación de Nogales
Ultimos registro cada 15 minutos 46
| N° | Estación | Fecha / Hora | Temperatura | Humedad | Lluvia | Velocidad | Dirección | Radiación | Presion |
| 46 | Nogales | 04-09-2026 11:15 | 18,3 | 62,6 | 0 | 0,7 | 175 | 760,6 | 989 |
| 45 | Nogales | 04-09-2026 11:00 | 17,9 | 65 | 0 | 0,7 | 178 | 734,4 | 989,2 |
| 44 | Nogales | 04-09-2026 10:45 | 17,7 | 64,9 | 0 | 0,3 | 177 | 701,9 | 989,4 |
| 43 | Nogales | 04-09-2026 10:30 | 16,6 | 69,6 | 0 | 0,7 | 187 | 664,4 | 989,6 |
| 42 | Nogales | 04-09-2026 10:15 | 16,3 | 69,6 | 0 | 0 | 180 | 628,1 | 989,7 |
| 41 | Nogales | 04-09-2026 10:00 | 16,1 | 75 | 0 | 0 | 180 | 581,9 | 989,8 |
| 40 | Nogales | 04-09-2026 09:45 | 14,6 | 80,7 | 0 | 0 | 170 | 535,6 | 990 |
| 39 | Nogales | 04-09-2026 09:30 | 14,4 | 82,2 | 0 | 0 | 46 | 488,1 | 989,9 |
| 38 | Nogales | 04-09-2026 09:15 | 13,6 | 87,9 | 0 | 0 | 31 | 435,6 | 990,1 |
| 37 | Nogales | 04-09-2026 09:00 | 12,5 | 92 | 0 | 0 | 32 | 379,4 | 990,3 |
| 36 | Nogales | 04-09-2026 08:45 | 11,1 | 94,8 | 0 | 0,3 | 37 | 329,4 | 990,3 |
| 35 | Nogales | 04-09-2026 08:30 | 9,8 | 96,2 | 0 | 0 | 79 | 280,6 | 990,4 |
| 34 | Nogales | 04-09-2026 08:15 | 8 | 96,6 | 0 | 0 | 84 | 73,1 | 990,4 |
| 33 | Nogales | 04-09-2026 08:00 | 6,1 | 97,5 | 0 | 0 | 84 | 35,6 | 990,3 |
| 32 | Nogales | 04-09-2026 07:45 | 4,5 | 97,6 | 0 | 0 | 236 | 20,6 | 990,2 |
| 31 | Nogales | 04-09-2026 07:30 | 4,1 | 97,7 | 0 | 0 | 237 | 13,1 | 990,2 |
| 30 | Nogales | 04-09-2026 07:15 | 3,9 | 97,4 | 0 | 0 | 237 | 8,1 | 990,1 |
| 29 | Nogales | 04-09-2026 07:00 | 3,8 | 97,4 | 0 | 0 | 237 | 3,1 | 990,1 |
| 28 | Nogales | 04-09-2026 06:45 | 3,9 | 97,2 | 0 | 0 | 233 | 0,6 | 990,1 |
| 27 | Nogales | 04-09-2026 06:30 | 4,2 | 97,3 | 0 | 0 | 233 | 0,6 | 989,9 |
| 26 | Nogales | 04-09-2026 06:15 | 4,1 | 97,2 | 0 | 0 | 233 | 0,6 | 989,9 |
| 25 | Nogales | 04-09-2026 06:00 | 4,5 | 97,2 | 0 | 0 | 233 | 0,6 | 989,9 |
| 24 | Nogales | 04-09-2026 05:45 | 4,7 | 97 | 0 | 0 | 233 | 0,6 | 989,7 |
| 23 | Nogales | 04-09-2026 05:30 | 4,9 | 97,1 | 0 | 0 | 233 | 0,6 | 989,7 |
| 22 | Nogales | 04-09-2026 05:15 | 4,8 | 96,9 | 0 | 0 | 233 | 0,6 | 989,8 |
| 21 | Nogales | 04-09-2026 05:00 | 4,7 | 96,7 | 0 | 0 | 233 | 0,6 | 989,8 |
| 20 | Nogales | 04-09-2026 04:45 | 5,1 | 96,6 | 0 | 0 | 233 | 0,6 | 989,7 |
| 19 | Nogales | 04-09-2026 04:30 | 5,1 | 96,6 | 0 | 0 | 233 | 0,6 | 989,8 |
| 18 | Nogales | 04-09-2026 04:15 | 5,4 | 96,7 | 0 | 0 | 233 | 0,6 | 990 |
| 17 | Nogales | 04-09-2026 04:00 | 5,6 | 96,6 | 0 | 0 | 233 | 0,6 | 990 |
| 16 | Nogales | 04-09-2026 03:45 | 5,5 | 96,5 | 0 | 0 | 233 | 0,6 | 990 |
| 15 | Nogales | 04-09-2026 03:30 | 5,5 | 96,2 | 0 | 0 | 233 | 0,6 | 990,1 |
| 14 | Nogales | 04-09-2026 03:15 | 6 | 96,3 | 0 | 0 | 233 | 0,6 | 990,1 |
| 13 | Nogales | 04-09-2026 03:00 | 5,8 | 95,9 | 0 | 0 | 233 | 0,6 | 990,4 |
| 12 | Nogales | 04-09-2026 02:45 | 6,1 | 95,9 | 0 | 0 | 233 | 0,6 | 990,5 |
| 11 | Nogales | 04-09-2026 02:30 | 5,9 | 95,6 | 0 | 0 | 233 | 0,6 | 990,6 |
| 10 | Nogales | 04-09-2026 02:15 | 6,2 | 95,5 | 0 | 0 | 233 | 0,6 | 990,7 |
| 9 | Nogales | 04-09-2026 02:00 | 6,3 | 95,2 | 0 | 0 | 233 | 0,6 | 990,8 |
| 8 | Nogales | 04-09-2026 01:45 | 6,6 | 95,1 | 0 | 0 | 233 | 0,6 | 990,8 |
| 7 | Nogales | 04-09-2026 01:30 | 6,6 | 95 | 0 | 0 | 233 | 0,6 | 990,8 |
| 6 | Nogales | 04-09-2026 01:15 | 7,1 | 95 | 0 | 0 | 233 | 0,6 | 991 |
| 5 | Nogales | 04-09-2026 01:00 | 6,9 | 94,7 | 0 | 0 | 233 | 0,6 | 991,1 |
| 4 | Nogales | 04-09-2026 00:45 | 7,2 | 94,6 | 0 | 0 | 232 | 0,6 | 991,2 |
| 3 | Nogales | 04-09-2026 00:30 | 7,4 | 94,1 | 0 | 0 | 232 | 0,6 | 991,3 |
| 2 | Nogales | 04-09-2026 00:15 | 7,7 | 93,9 | 0 | 0 | 232 | 0,6 | 991,3 |
| 1 | Nogales | 04-09-2026 00:00 | 7,9 | 94 | 0 | 0 | 232 | 0,6 | 991,3 |